Weather in Kosterevo-1

Russia / Vladimir Oblast     55°54′26″N   39°39′17″E
temp.,
°C
wind,
m/s
gust,
m/s
humid.,
%
clouds,
%
prec.,
mm/h
press.,
hPa
HPBL,
m
27 february, sat
sat2700:00+1wnw61397100 0.1 997866
03:00+1w51297100 0.9 999839
06:00−9nnw61287100 0.8 1000776
09:00−11nnw61287100 0.8 1005635
12:00−9nnw4985100 0.0 1007560
15:00−8nnw488699 0.0 1009564
18:00−10n269399 0.0 1010210
21:00−11n269586 0.0 1013194
28 february, sun
sun2800:00−13nnw249637 0.0 1014101
03:00−14nnw239519 0.0 101581
06:00−13nnw129643 0.0 101595
09:00−10nnw129269 0.3 1015207
12:00−6nnw138796 0.1 1015400
15:00−4nnw248798 0.1 1016514
18:00−5nne2395100 0.1 101799
21:00−6ene1196100 0.1 101921
1 march, mon
mon100:00−7e129798 0.1 102030
03:00−8s129697 0.1 102221
06:00−8ssw1297100 0.1 102225
09:00−7sw119694 0.1 102382
12:00−2sw249185 0.0 1022400
15:00−1wsw358889 0.1 1022619
18:00−2wsw3995100 0.1 1019464
21:00−1sw41094100 0.1 1017487
2 march, tue
tue200:000w51293100 0.2 1013694
03:00+1wsw51192100 0.2 1010767
06:000w51297100 0.2 1007705
09:000wnw41098100 0.5 1006671
12:00+1wnw51098100 0.6 1007838
15:00+1nw6118697 1.0 10071158
18:00−1nw4128899 0.1 1008834
21:00−2nw4129380 0.1 1010612
3 march, wed
wed300:00−2nw5129198 0.1 1011814
03:00−5nw5138999 0.1 1012828
06:00−5nnw5138899 0.1 1013670
09:00−5nnw5138589 0.1 1016672
12:00−2nw598540 0.0 1016825
15:000nw698168 0.3 10171063
18:00−2nw4108794 0.1 1017768
21:00−3nw399495 0.1 1018527